CSN370 RKSI-ZSPD

Flight info

Callsign CSN370
Flight time N/A
Altitude 38000
Route BOPTA3H BOPTA Z51 BEDES Y711 PONIK A593 LAMEN/K0795F280 A593 AKARA/K0793S0840 A593 PUD
Aircraft A388/J-SADE2E3FGHIJ3J4J5M1RWXY/LB1D1

Departure

Time 2026-05-04 19:51
Airport Incheon International Airport (RKSI)

Arrival

Time N/A
Airport Shanghai Pudong International Airport (ZSPD)
Time Latitude Longitude Altitude Speed Heading
2026-05-04 19:26 37.45419 126.44368 37 ft 0 kts 324°
2026-05-04 19:38 37.45405 126.44380 35 ft 3 kts 324°
2026-05-04 19:38 37.45388 126.44396 34 ft 4 kts 318°
2026-05-04 19:38 37.45374 126.44418 34 ft 4 kts 290°
2026-05-04 19:39 37.45372 126.44432 37 ft 4 kts 242°
2026-05-04 19:39 37.45385 126.44456 35 ft 4 kts 234°
2026-05-04 19:39 37.45395 126.44473 35 ft 1 kts 234°
2026-05-04 19:42 37.45394 126.44472 35 ft 2 kts 234°
2026-05-04 19:42 37.45370 126.44429 37 ft 11 kts 234°
2026-05-04 19:42 37.45309 126.44321 37 ft 16 kts 234°
2026-05-04 19:42 37.45236 126.44192 37 ft 18 kts 234°
2026-05-04 19:43 37.45175 126.44080 37 ft 12 kts 246°
2026-05-04 19:43 37.45191 126.44015 37 ft 10 kts 308°
2026-05-04 19:43 37.45253 126.43966 37 ft 13 kts 324°
2026-05-04 19:43 37.45332 126.43895 37 ft 14 kts 325°
2026-05-04 19:44 37.45392 126.43833 37 ft 10 kts 313°
2026-05-04 19:44 37.45441 126.43761 37 ft 10 kts 281°
2026-05-04 19:44 37.45418 126.43677 37 ft 11 kts 255°
2026-05-04 19:44 37.45445 126.43596 38 ft 12 kts 326°
2026-05-04 19:45 37.45530 126.43529 38 ft 17 kts 326°
2026-05-04 19:45 37.45639 126.43433 38 ft 21 kts 325°
2026-05-04 19:45 37.45741 126.43342 38 ft 18 kts 324°
2026-05-04 19:45 37.45847 126.43249 38 ft 19 kts 324°
2026-05-04 19:46 37.45954 126.43152 38 ft 18 kts 324°
2026-05-04 19:46 37.46052 126.43065 37 ft 16 kts 325°
2026-05-04 19:46 37.46152 126.42976 37 ft 19 kts 324°
2026-05-04 19:46 37.46268 126.42873 37 ft 22 kts 324°
2026-05-04 19:47 37.46395 126.42759 38 ft 23 kts 324°
2026-05-04 19:47 37.46521 126.42648 38 ft 21 kts 324°
2026-05-04 19:47 37.46639 126.42543 38 ft 22 kts 324°
2026-05-04 19:47 37.46765 126.42431 38 ft 21 kts 324°
2026-05-04 19:48 37.46875 126.42333 37 ft 21 kts 324°
2026-05-04 19:48 37.46998 126.42223 37 ft 21 kts 324°
2026-05-04 19:48 37.47113 126.42121 37 ft 21 kts 324°
2026-05-04 19:48 37.47230 126.42017 38 ft 19 kts 324°
2026-05-04 19:49 37.47337 126.41922 38 ft 15 kts 324°
2026-05-04 19:49 37.47400 126.41859 38 ft 11 kts 296°
2026-05-04 19:49 37.47378 126.41769 38 ft 13 kts 234°
2026-05-04 19:49 37.47321 126.41670 38 ft 13 kts 234°
2026-05-04 19:50 37.47281 126.41601 38 ft 8 kts 223°
2026-05-04 19:50 37.47237 126.41596 39 ft 8 kts 156°
2026-05-04 19:50 37.47216 126.41612 39 ft 0 kts 144°
2026-05-04 19:50 37.47191 126.41634 39 ft 25 kts 144°
2026-05-04 19:51 37.46796 126.41985 37 ft 109 kts 144°
2026-05-04 19:51 37.46051 126.42649 51 ft 156 kts 144°
2026-05-04 19:51 37.45159 126.43416 658 ft 151 kts 147°
2026-05-04 19:51 37.44237 126.44150 1103 ft 164 kts 150°
2026-05-04 19:52 37.43260 126.44894 1669 ft 165 kts 154°
2026-05-04 19:52 37.42207 126.45660 1931 ft 183 kts 155°
2026-05-04 19:52 37.41058 126.46509 2250 ft 199 kts 153°
2026-05-04 19:52 37.39831 126.47440 2481 ft 213 kts 153°
2026-05-04 19:53 37.38492 126.48354 2640 ft 226 kts 160°
2026-05-04 19:53 37.36915 126.48955 3041 ft 246 kts 169°
2026-05-04 19:53 37.35226 126.49502 3653 ft 258 kts 167°
2026-05-04 19:53 37.33484 126.50106 4585 ft 262 kts 166°
2026-05-04 19:54 37.31715 126.50762 5461 ft 268 kts 166°
2026-05-04 19:54 37.29912 126.51393 6402 ft 270 kts 167°
2026-05-04 19:54 37.28089 126.52057 7250 ft 276 kts 161°
2026-05-04 19:54 37.26333 126.53105 8118 ft 282 kts 153°
2026-05-04 19:55 37.24600 126.54306 8963 ft 287 kts 153°
2026-05-04 19:55 37.22827 126.55514 9840 ft 291 kts 153°
2026-05-04 19:55 37.21048 126.56717 10459 ft 304 kts 153°
2026-05-04 19:55 37.19113 126.58020 10721 ft 326 kts 153°
2026-05-04 19:56 37.17058 126.59405 11047 ft 343 kts 153°
2026-05-04 19:56 37.14939 126.60837 11776 ft 346 kts 153°
2026-05-04 19:56 37.12716 126.61988 12546 ft 347 kts 165°
2026-05-04 19:56 37.10334 126.62534 12933 ft 349 kts 177°
2026-05-04 19:57 37.07910 126.62523 12991 ft 349 kts 182°
2026-05-04 19:57 37.05482 126.62456 12986 ft 348 kts 182°
2026-05-04 19:57 37.03067 126.62414 12986 ft 347 kts 181°
2026-05-04 19:57 37.00650 126.62382 12980 ft 347 kts 181°
2026-05-04 19:58 36.98229 126.62353 12980 ft 348 kts 181°
2026-05-04 19:58 36.95803 126.62352 13081 ft 349 kts 180°
2026-05-04 19:58 36.93365 126.62388 13532 ft 352 kts 180°
2026-05-04 19:58 36.90943 126.62430 14334 ft 352 kts 180°
2026-05-04 19:59 36.88480 126.62462 14944 ft 357 kts 181°
2026-05-04 19:59 36.85985 126.62333 15555 ft 361 kts 183°
2026-05-04 19:59 36.83459 126.62183 16185 ft 365 kts 183°
2026-05-04 19:59 36.80907 126.62038 16837 ft 369 kts 182°
2026-05-04 20:00 36.78332 126.61893 17457 ft 372 kts 182°
2026-05-04 20:00 36.75726 126.61760 18076 ft 376 kts 180°
2026-05-04 20:00 36.73106 126.61945 18631 ft 380 kts 172°
2026-05-04 20:00 36.70499 126.62592 19181 ft 382 kts 164°
2026-05-04 20:01 36.67930 126.63494 19719 ft 385 kts 164°
2026-05-04 20:01 36.65437 126.64344 20236 ft 388 kts 165°
2026-05-04 20:01 36.62818 126.65223 20765 ft 390 kts 165°
2026-05-04 20:01 36.60190 126.66100 21333 ft 392 kts 165°
2026-05-04 20:02 36.57543 126.66985 21843 ft 395 kts 165°
2026-05-04 20:02 36.54872 126.67878 22339 ft 398 kts 165°
2026-05-04 20:02 36.52189 126.68776 22862 ft 401 kts 165°
2026-05-04 20:02 36.49481 126.69682 23355 ft 404 kts 165°
2026-05-04 20:03 36.46752 126.70594 23838 ft 407 kts 165°
2026-05-04 20:03 36.44041 126.71500 24245 ft 410 kts 165°
2026-05-04 20:03 36.41273 126.72424 24662 ft 413 kts 166°
2026-05-04 20:03 36.38490 126.73352 25061 ft 417 kts 166°
2026-05-04 20:04 36.35679 126.74295 25479 ft 420 kts 166°
2026-05-04 20:04 36.32843 126.75253 25916 ft 423 kts 166°
2026-05-04 20:04 36.29983 126.76220 26365 ft 427 kts 166°
2026-05-04 20:04 36.27108 126.77190 26833 ft 430 kts 167°
2026-05-04 20:05 36.24201 126.78170 27301 ft 434 kts 167°
2026-05-04 20:05 36.21271 126.79156 27788 ft 438 kts 167°
2026-05-04 20:05 36.18311 126.80119 28271 ft 441 kts 170°
2026-05-04 20:05 36.15278 126.80720 28783 ft 441 kts 178°
2026-05-04 20:06 36.12209 126.80868 29310 ft 442 kts 185°
2026-05-04 20:06 36.09139 126.80595 29828 ft 444 kts 189°
2026-05-04 20:06 36.06050 126.80234 30314 ft 447 kts 189°
2026-05-04 20:06 36.02938 126.79890 30784 ft 450 kts 188°
2026-05-04 20:07 35.99807 126.79552 31259 ft 453 kts 189°
2026-05-04 20:07 35.96714 126.79219 31699 ft 455 kts 189°
2026-05-04 20:07 35.93503 126.78874 32206 ft 458 kts 189°
2026-05-04 20:07 35.90322 126.78531 32638 ft 461 kts 189°
2026-05-04 20:08 35.87211 126.78194 33066 ft 464 kts 189°
2026-05-04 20:08 35.84016 126.77847 33515 ft 466 kts 190°
2026-05-04 20:08 35.80819 126.77501 33956 ft 469 kts 190°
2026-05-04 20:08 35.77555 126.77147 34355 ft 472 kts 190°
2026-05-04 20:09 35.74271 126.76792 34736 ft 475 kts 190°
2026-05-04 20:09 35.70971 126.76437 35212 ft 475 kts 190°
2026-05-04 20:09 35.67681 126.76083 35752 ft 474 kts 190°
2026-05-04 20:09 35.64402 126.75731 36282 ft 473 kts 191°
2026-05-04 20:10 35.61124 126.75379 36808 ft 472 kts 191°
2026-05-04 20:10 35.57898 126.75032 37303 ft 471 kts 191°
2026-05-04 20:10 35.54647 126.74683 37887 ft 468 kts 191°
2026-05-04 20:10 35.51384 126.74330 38164 ft 473 kts 191°
2026-05-04 20:11 35.48084 126.73972 38143 ft 473 kts 191°
2026-05-04 20:11 35.41561 126.73279 38150 ft 471 kts 191°
2026-05-04 20:12 35.35020 126.72579 38157 ft 471 kts 191°
2026-05-04 20:12 35.28511 126.71882 38158 ft 472 kts 191°
2026-05-04 20:13 35.21974 126.71185 38157 ft 471 kts 191°
2026-05-04 20:13 35.15435 126.70490 38157 ft 471 kts 192°
2026-05-04 20:14 35.08952 126.69801 38161 ft 471 kts 192°
2026-05-04 20:14 35.02422 126.69108 38158 ft 471 kts 192°
2026-05-04 20:15 34.95889 126.68415 38160 ft 471 kts 192°
2026-05-04 20:15 34.89357 126.67724 38164 ft 471 kts 192°
2026-05-04 20:16 34.82816 126.67033 38164 ft 471 kts 192°
2026-05-04 20:16 34.76297 126.66346 38165 ft 471 kts 192°
2026-05-04 20:17 34.69806 126.65663 38168 ft 471 kts 192°
2026-05-04 20:17 34.63293 126.64977 38166 ft 471 kts 192°
2026-05-04 20:18 34.56767 126.64292 38170 ft 470 kts 192°
2026-05-04 20:18 34.50259 126.63610 38166 ft 469 kts 192°
2026-05-04 20:19 34.44854 126.63044 38160 ft 469 kts 192°
2026-05-04 20:19 34.38357 126.62364 38155 ft 467 kts 192°
2026-05-04 20:20 34.31875 126.61689 38161 ft 467 kts 192°
2026-05-04 20:20 34.25386 126.61013 38156 ft 467 kts 192°
2026-05-04 20:21 34.18908 126.60338 38132 ft 467 kts 192°
2026-05-04 20:21 34.09223 126.59329 38165 ft 465 kts 193°
2026-05-04 20:22 34.02764 126.58657 38159 ft 465 kts 193°
2026-05-04 20:22 33.96361 126.57994 38161 ft 464 kts 193°
2026-05-04 20:23 33.89931 126.57327 38158 ft 464 kts 193°
2026-05-04 20:23 33.83608 126.56184 38154 ft 454 kts 201°
2026-05-04 20:24 33.77633 126.53948 38162 ft 445 kts 208°
2026-05-04 20:24 33.71813 126.51388 38154 ft 445 kts 207°
2026-05-04 20:25 33.66053 126.48889 38143 ft 446 kts 207°
2026-05-04 20:25 33.60214 126.46365 38127 ft 446 kts 207°
2026-05-04 20:26 33.54423 126.43864 38156 ft 445 kts 207°
2026-05-04 20:26 33.48598 126.41351 38153 ft 445 kts 207°
2026-05-04 20:27 33.42780 126.38845 38117 ft 445 kts 207°
2026-05-04 20:27 33.36959 126.36342 38160 ft 444 kts 207°
2026-05-04 20:28 33.31138 126.33843 38156 ft 444 kts 207°
2026-05-04 20:28 33.25313 126.31345 38157 ft 444 kts 207°
2026-05-04 20:29 33.19508 126.28860 38163 ft 443 kts 208°
2026-05-04 20:29 33.13737 126.26392 38162 ft 443 kts 208°
2026-05-04 20:30 33.07936 126.23914 38151 ft 443 kts 208°
2026-05-04 20:30 33.02128 126.21438 38153 ft 443 kts 208°
2026-05-04 20:31 32.96324 126.18957 38153 ft 443 kts 208°
2026-05-04 20:31 32.90533 126.16467 38152 ft 443 kts 208°
2026-05-04 20:32 32.84739 126.13980 38155 ft 442 kts 208°
2026-05-04 20:32 32.78959 126.11505 38160 ft 441 kts 208°
2026-05-04 20:33 32.73184 126.09035 38158 ft 441 kts 208°
2026-05-04 20:33 32.67407 126.06569 38155 ft 441 kts 208°
2026-05-04 20:34 32.61677 126.04127 38164 ft 440 kts 208°
2026-05-04 20:34 32.55951 126.01689 38161 ft 439 kts 208°
2026-05-04 20:35 32.50194 125.99240 38158 ft 439 kts 208°
2026-05-04 20:35 32.44448 125.96803 38166 ft 438 kts 208°
2026-05-04 20:36 32.38707 125.94372 38162 ft 438 kts 208°
2026-05-04 20:36 32.32963 125.91942 38160 ft 437 kts 208°
2026-05-04 20:37 32.27226 125.89519 38132 ft 437 kts 209°
2026-05-04 20:37 32.21547 125.87125 38168 ft 436 kts 209°
2026-05-04 20:38 32.15829 125.84715 38159 ft 436 kts 209°
2026-05-04 20:38 32.10127 125.82284 38150 ft 432 kts 212°
2026-05-04 20:39 32.07477 125.80716 38158 ft 421 kts 219°
2026-05-04 20:39 32.05094 125.78772 38160 ft 413 kts 226°
2026-05-04 20:39 32.01180 125.73961 38158 ft 403 kts 238°
2026-05-04 20:40 31.98501 125.68252 38153 ft 397 kts 250°
2026-05-04 20:40 31.96972 125.62012 38154 ft 396 kts 256°
2026-05-04 20:41 31.95602 125.55848 38157 ft 396 kts 255°
2026-05-04 20:41 31.94197 125.49581 38188 ft 395 kts 255°
2026-05-04 20:42 31.92794 125.43320 38143 ft 396 kts 255°
2026-05-04 20:42 31.91388 125.37055 38143 ft 396 kts 255°
2026-05-04 20:43 31.89978 125.30786 38149 ft 396 kts 255°
2026-05-04 20:43 31.88562 125.24512 38165 ft 396 kts 255°
2026-05-04 20:44 31.87142 125.18232 38143 ft 397 kts 255°
2026-05-04 20:44 31.85718 125.11950 38133 ft 396 kts 255°
2026-05-04 20:45 31.84298 125.05703 38159 ft 396 kts 255°
2026-05-04 20:45 31.82883 124.99489 38155 ft 396 kts 255°
2026-05-04 20:46 31.81516 124.93216 38142 ft 397 kts 256°
2026-05-04 20:46 31.80171 124.86937 38141 ft 397 kts 256°
2026-05-04 20:47 31.78812 124.80654 38142 ft 397 kts 256°
2026-05-04 20:47 31.77440 124.74346 38141 ft 397 kts 256°
2026-05-04 20:48 31.76066 124.68047 38147 ft 397 kts 256°
2026-05-04 20:48 31.74690 124.61759 38144 ft 397 kts 256°
2026-05-04 20:49 31.73325 124.55529 38148 ft 397 kts 256°
2026-05-04 20:49 31.71943 124.49242 38144 ft 397 kts 256°
2026-05-04 20:50 31.70556 124.42948 38130 ft 398 kts 256°
2026-05-04 20:50 31.69164 124.36649 38134 ft 399 kts 256°
2026-05-04 20:51 31.67767 124.30341 38135 ft 399 kts 256°
2026-05-04 20:51 31.66368 124.24040 38150 ft 397 kts 256°
2026-05-04 20:52 31.64971 124.17760 38139 ft 398 kts 256°
2026-05-04 20:52 31.63568 124.11473 38139 ft 398 kts 256°
2026-05-04 20:53 31.62161 124.05184 38134 ft 398 kts 255°
2026-05-04 20:53 31.60751 123.98891 38132 ft 399 kts 256°
2026-05-04 20:54 31.59374 123.92593 38101 ft 400 kts 256°
2026-05-04 20:54 31.58690 123.89441 37841 ft 396 kts 256°
2026-05-04 20:54 31.58010 123.86323 37582 ft 394 kts 256°
2026-05-04 20:55 31.57330 123.83215 37327 ft 394 kts 256°
2026-05-04 20:55 31.56648 123.80102 37067 ft 394 kts 256°
2026-05-04 20:55 31.55964 123.76991 36806 ft 394 kts 256°
2026-05-04 20:55 31.55278 123.73872 36564 ft 394 kts 256°
2026-05-04 20:56 31.54602 123.70800 36330 ft 395 kts 256°
2026-05-04 20:56 31.53914 123.67681 36095 ft 395 kts 256°
2026-05-04 20:56 31.53223 123.64551 35858 ft 399 kts 255°
2026-05-04 20:56 31.52523 123.61388 35615 ft 399 kts 255°
2026-05-04 20:57 31.51827 123.58242 35380 ft 399 kts 255°
2026-05-04 20:57 31.51129 123.55093 35144 ft 399 kts 255°
2026-05-04 20:57 31.50431 123.51948 34912 ft 399 kts 255°
2026-05-04 20:57 31.49735 123.48801 34683 ft 399 kts 256°
2026-05-04 20:58 31.49107 123.45634 34275 ft 398 kts 257°
2026-05-04 20:58 31.48526 123.42467 33610 ft 397 kts 257°
2026-05-04 20:58 31.47953 123.39326 32999 ft 391 kts 257°
2026-05-04 20:58 31.47383 123.36240 32456 ft 385 kts 257°
2026-05-04 20:59 31.46813 123.33205 31954 ft 379 kts 257°
2026-05-04 20:59 31.46244 123.30203 31419 ft 374 kts 257°
2026-05-04 20:59 31.45681 123.27247 30894 ft 370 kts 257°
2026-05-04 20:59 31.45122 123.24322 30383 ft 366 kts 257°
2026-05-04 21:00 31.44569 123.21428 29821 ft 362 kts 257°
2026-05-04 21:00 31.44023 123.18575 29322 ft 357 kts 257°
2026-05-04 21:00 31.43483 123.15758 28850 ft 352 kts 257°
2026-05-04 21:00 31.42949 123.12980 28333 ft 349 kts 257°
2026-05-04 21:01 31.42416 123.10204 27835 ft 348 kts 257°
2026-05-04 21:01 31.41890 123.07470 27354 ft 349 kts 257°
2026-05-04 21:01 31.41356 123.04699 26851 ft 349 kts 257°
2026-05-04 21:01 31.40820 123.01922 26350 ft 349 kts 257°
2026-05-04 21:02 31.40287 122.99159 25857 ft 347 kts 257°